Duchifat 3
1 44854U 19089C   25089.32668022  .00056006  00000-0  13998-2 0  9994
2 44854  36.9455  85.9530 0004864 288.0759  71.9465 15.39101480292007
TO-108
1 44881U 19093C   25089.76640376  .00002192  00000-0  26037-3 0  9995
2 44881  97.7958 166.8954 0015285 103.4552 256.8368 14.85374538285564
FloripaSat 1
1 44885U 19093G   25089.74287926  .00009458  00000-0  81861-3 0  9993
2 44885  97.8170 177.2561 0011770  85.0035 275.2530 14.97318562286140
RS-44
1 44909U 19096E   25089.56692342  .00000018  00000-0  17746-4 0  9990
2 44909  82.5163 274.4687 0218482 101.5976 260.9737 12.79739786245605
UPMSat 2
1 46276U 20061E   25089.27700210  .00062477  00000-0  81154-3 0  9995
2 46276  97.2518 161.7596 0001854 154.6088 205.5259 15.58613194254321
SALSAT
1 46495U 20068K   25089.48604657  .00013627  00000-0  61162-3 0  9996
2 46495  97.8554  64.3254 0013605  55.6626 304.5894 15.21232383247711
CubeSX-Sirius-HSE
1 47951U 21022V   25089.71576703  .00155717  00000-0  16247-2 0  9991
2 47951  97.4257 358.8546 0008543 157.1935 202.9705 15.63967215222660
CubeSX-HSE
1 47952U 21022W   25089.74401405  .00157574  00000-0  16063-2 0  9990
2 47952  97.4262 359.1029 0008710 152.3228 207.8496 15.64551609222685
GRBAlpha
1 47959U 21022AD  25089.77613759  .00149021  00000-0  15397-2 0  9994
2 47959  97.4249 359.2738 0008471 156.1471 204.0182 15.64238704221511
Orbicraft-Zorkiy
1 47960U 21022AE  25089.71337288  .00570387  12829-3  18550-2 0  9992
2 47960  97.4169   3.3568 0009744 143.7378 216.4557 15.90632543222437
TUBIN
1 48900U 21059X   25089.71155857  .00058906  00000-0  94248-3 0  9999
2 48900  97.6705 253.5839 0004083 152.9527 207.1939 15.52941202209012
LEDSAT
1 49069U 21073D   25089.75197539  .00069730  00000-0  12106-2 0  9998
2 49069  97.3946 168.8430 0010311 333.3887  26.6834 15.50552421200426
CUTE
1 49263U 21088D   25089.20108688  .00019833  00000-0  44156-3 0  9997
2 49263  97.4563 163.5320 0010175 139.4547 220.7460 15.43608472193405
TeikyoSat 4
1 49396U 21102B   25089.65853849  .00004480  00000-0  30107-3 0  9999
2 49396  97.4192 130.6306 0013017  23.6513 336.5311 15.07199817185864
Z-Sat
1 49399U 21102E   25089.70380706  .00006996  00000-0  39222-3 0  9996
2 49399  97.3893 133.3509 0017889 355.5179   4.5890 15.13552619186253
KOSEN 1
1 49402U 21102H   25089.62483107  .00010899  00000-0  52317-3 0  9998
2 49402  97.3794 136.1761 0015132 331.7218  28.3194 15.18936397186512
HO-113
1 50466U 21131B   25089.71562203  .00001309  00000-0  42358-3 0  9997
2 50466  98.5087 179.4305 0003859   5.5723 354.5508 14.40678544171244
IRIS-A
1 51044U 22002BN  25089.14117333  .00152244  00000-0  12831-2 0  9992
2 51044  97.3328 165.7736 0001597 134.9481 225.1910 15.69347008178587
Foresail-1
1 52766U 22057AL  25089.64619598  .00137477  00000-0  12470-2 0  9999
2 52766  97.6028 234.3661 0005660 206.0637 154.0339 15.67568717158693
SNUGLITE 2
1 52899U 22065F   25089.63933281  .00002764  00000-0  54916-3 0  9994
2 52899  98.1561 232.3589 0006980 343.5629  16.5345 14.62927660146112
IO-117
1 53106U 22080B   25051.21822557 -.00000003  00000-0  00000+0 0  9995
2 53106  70.1434 106.3440 0008542  48.0089 312.1297  6.42557744 61200
UmKA 1 (RS40S)
1 57172U 23091G   25089.73035425  .00009049  00000-0  49821-3 0  9999
2 57172  97.5664 145.5031 0014204 213.5535 146.4798 15.14176867 96757
CubeBel-2 (EU11S)
1 57175U 23091K   25089.73170154  .00013791  00000-0  69100-3 0  9992
2 57175  97.5665 146.2572 0012106 222.1508 137.8795 15.17422140 96802
VERONIKA
1 58261U 23174F   25089.77250500  .00101514  00000-0  16170-2 0  9998
2 58261  97.4187 172.6517 0006502 283.6675  76.3853 15.52883111 77639
KAFASAT
1 58317U 23174BP  25089.76942825  .02485905  93779-2  23653-2 0  9999
2 58317  97.3939 177.8978 0012050 262.5078  97.4839 16.14138099 78008
ENSO
1 58470U 23185J   25089.70577018  .00058614  00000-0  11458-2 0  9997
2 58470  97.3800 162.9704 0006596 332.6580  27.4322 15.47232190 74044
EIRSAT-1
1 58472U 23185L   25089.71838978  .00087374  00000-0  13816-2 0  9990
2 58472  97.3775 163.9775 0005409 328.0038  32.0886 15.53147669 74113
SONATE-2
1 59112U 24043Q   25089.60565884  .00026440  00000-0  84031-3 0  9992
2 59112  97.5029 219.5585 0011068   9.3507 350.7938 15.32547925 59458
MO-122
1 60209U 24125G   25089.56851495  .00026729  00000-0  83761-3 0  9992
2 60209  97.2883 302.0910 0020749  35.8198 324.4431 15.32839370 41060
GRBBeta
1 60237U 24128C   25089.24839548  .00007529  00000-0  57817-3 0  9996
2 60237  61.9935 328.1214 0045180  42.1066 318.3481 15.01748092 39480
Curium One
1 60242U 24128H   25089.38989908  .00012413  00000-0  89673-3 0  9996
2 60242  61.9837 326.8580 0044887  37.7147 322.7076 15.03619453 39525
ROBUSTA-3A
1 60243U 24128J   25089.37227503  .00011787  00000-0  86212-3 0  9991
2 60243  61.9904 327.5243 0043323  35.4799 324.9160 15.03247428 39513
CatSat
1 60246U 24125J   25089.57841958  .00013993  00000-0  49173-3 0  9995
2 60246  97.2663 302.0604 0043602 349.1212  10.9080 15.28561830 39138
HYPERVIEW-1G (RS66S)
1 61772U 24199AP  25089.69736070  .00031067  00000-0  10095-2 0  9994
2 61772  97.3645 318.8305 0016460  87.9208 272.3918 15.31727820 66097
AO-123
1 61781U 24199AY  25089.71325283  .00012335  00000-0  46556-3 0  9996
2 61781  97.3656 318.3697 0018016  89.3987 270.9316 15.27014050 66069
ZIMSAT 2
1 61783U 24199BA  25089.74058802  .00043052  00000-0  12774-2 0  9995
2 61783  97.3636 319.0684 0017120  86.7044 273.6157 15.34540056 69269
POEM 4 (BGS ARPIT)
1 62461U 24253C   25088.73948041  .01186161  10081-2  84316-3 0  9995
2 62461  55.2066 187.2090 0005094 334.8194 128.0989 16.15712360 14118
HADES-R (SO-124)
1 62690U 25009CK  25089.61031125  .00046183  00000-0  19678-2 0  9997
2 62690  97.4138 170.9855 0001605 316.0759  44.0349 15.22803563 11321
HYDRA-T
1 62692U 25009CM  25089.53936417  .00046497  00000-0  19725-2 0  9999
2 62692  97.4135 170.9270 0001566 305.2874  54.8216 15.22950825 11310
Fram2Ham
1 90000U 25090A   25091.17708220 -.00012090  00000-0 -25444-3 0    64
2 90000  90.0015 318.6050 0001128  47.8434 312.3114 15.45593922    34
